Time,TemperatureF,DewpointF,PressureIn,WindDirection,WindDirectionDegrees,WindSpeedMPH,WindSpeedGustMPH,Humidity,HourlyPrecipIn,Conditions,Clouds,dailyrainin,SoftwareType,DateUTC
2013-07-15 00:00:00,68.1,67.8,30.26,West,270,0.0,2.0,99,0.00,,OVC,0.00,VWS V14.01,2013-07-15 04:00:00,
2013-07-15 01:00:00,68.0,67.7,30.27,WSW,248,0.0,3.0,99,0.00,,OVC,0.00,VWS V14.01,2013-07-15 05:00:00,
2013-07-15 02:00:00,68.2,67.9,30.27,WSW,248,0.0,3.0,99,0.00,,OVC,0.00,VWS V14.01,2013-07-15 06:00:00,
2013-07-15 03:00:00,68.3,68.0,30.27,WSW,248,0.0,3.0,99,0.00,,OVC,0.00,VWS V14.01,2013-07-15 07:00:00,
2013-07-15 04:00:00,68.3,68.0,30.26,WSW,248,0.0,1.0,99,0.00,,OVC,0.00,VWS V14.01,2013-07-15 08:00:00,
2013-07-15 05:00:00,68.0,67.7,30.26,WSW,248,0.0,1.0,99,0.00,,OVC,0.00,VWS V14.01,2013-07-15 09:00:00,
2013-07-15 06:00:00,67.3,67.0,30.27,WSW,248,0.0,1.0,99,0.00,,OVC,0.00,VWS V14.01,2013-07-15 10:00:00,
2013-07-15 07:00:00,67.2,66.9,30.28,WSW,248,0.0,0.0,99,0.00,,OVC,0.00,VWS V14.01,2013-07-15 11:00:00,
2013-07-15 08:00:00,67.4,67.1,30.30,WSW,248,0.0,2.0,99,0.00,,OVC,0.00,VWS V14.01,2013-07-15 12:00:00,
2013-07-15 09:00:00,68.3,68.0,30.30,WSW,248,0.0,4.0,99,0.00,,OVC,0.00,VWS V14.01,2013-07-15 13:00:00,
2013-07-15 10:00:00,69.7,68.2,30.30,WSW,248,0.0,4.0,95,0.00,,OVC,0.00,VWS V14.01,2013-07-15 14:00:00,
2013-07-15 11:00:00,70.9,68.2,30.31,West,270,1.0,7.0,91,0.00,,OVC,0.00,VWS V14.01,2013-07-15 15:00:00,
2013-07-15 12:00:00,72.4,69.0,30.32,West,270,1.0,5.0,89,0.00,,OVC,0.00,VWS V14.01,2013-07-15 16:00:00,
2013-07-15 13:00:00,75.1,68.5,30.31,WSW,248,1.0,7.0,80,0.00,,OVC,0.00,VWS V14.01,2013-07-15 17:00:00,
2013-07-15 14:00:00,75.2,70.0,30.29,WSW,248,1.0,8.0,84,0.00,,OVC,0.00,VWS V14.01,2013-07-15 18:00:00,
2013-07-15 15:00:00,79.1,70.9,30.27,West,270,1.0,7.0,76,0.00,,OVC,0.00,VWS V14.01,2013-07-15 19:00:00,
2013-07-15 16:00:00,80.1,69.4,30.26,West,270,1.0,7.0,70,0.00,,OVC,0.00,VWS V14.01,2013-07-15 20:00:00,
2013-07-15 17:00:00,79.8,69.6,30.24,West,270,1.0,6.0,71,0.00,,OVC,0.00,VWS V14.01,2013-07-15 21:00:00,
2013-07-15 18:00:00,79.1,68.9,30.24,West,270,1.0,6.0,71,0.00,,OVC,0.00,VWS V14.01,2013-07-15 22:00:00,
2013-07-15 19:00:00,78.4,69.0,30.25,WSW,248,1.0,6.0,73,0.00,,OVC,0.00,VWS V14.01,2013-07-15 23:00:00,
2013-07-15 20:00:00,75.8,70.6,30.25,West,270,0.0,5.0,84,0.00,,OVC,0.00,VWS V14.01,2013-07-16 00:00:00,
2013-07-15 21:00:00,71.9,68.8,30.24,West,270,0.0,2.0,90,0.00,,OVC,0.00,VWS V14.01,2013-07-16 01:00:00,
2013-07-15 22:00:00,70.1,68.3,30.25,West,270,0.0,3.0,94,0.00,,OVC,0.00,VWS V14.01,2013-07-16 02:00:00,
2013-07-15 23:00:00,70.4,68.9,30.27,West,270,0.0,4.0,95,0.09,,OVC,0.09,VWS V14.01,2013-07-16 03:00:00,